Location: Friedrichshafen
(47.6598°N, 9.4819°E)
Time: 23:34:14
(UTC+01:00)

ISS - Pass Details

Date: 10 February 2018
Orbit: 402 x 407 km, 51.6° (Epoch: 23 February)

Event Time Altitude Azimuth Distance (km) Brightness Sun altitude
Rises 18:39:56 0° 293° (WNW) 2,321 1.1 -11.0°
Reaches altitude 10° 18:42:02 10° 289° (WNW) 1,460 0.0 -11.4°
Maximum altitude 18:45:15 58° 210° (SSW) 475 -3.3 -11.9°
Enters shadow 18:48:13 12° 131° (SE) 1,358 -1.6 -12.4°
